IRIDIUM 12 [-]

Last updated on Tue Aug 28 2018 15:42:20 GMT+0100 (British Summer Time)

1 24837U 97030B 18240.18240253 .04099930 -17375-5 96094-3 0 9997 2 24837 86.3974 166.5591 0247471 141.7095 220.2052 15.83763043109764

Satellite not in orbit